Regional Weather Roundup
Issued by NWS

Home | Current Version | Previous Version | Text Only | Print | Product List | Glossary Off
Versions: 1 2 3 4 5 6 7 8 9 10 11 12 13 14 15 16 17 18 19 20 21 22 23 24 25 26 27 28 29 30 31 32 33 34 35 36 37 38 39 40 41 42 43 44 45 46 47 48 49 50

000
ASUS43 KMPX 240401
RWRMN
WEATHER ROUNDUP FOR MINNESOTA
NATIONAL WEATHER SERVICE TWIN CITIES/CHANHASSEN MN
1100 PM CDT MON OCT 23 2017


NOTE: "FAIR" INDICATES FEW OR NO CLOUDS BELOW 12,000 FEET WITH NO
SIGNIFICANT WEATHER AND/OR OBSTRUCTIONS TO VISIBILITY. N/A MEANS
CURRENT SKY AND/OR WEATHER CONDITIONS ARE NOT AVAILABLE.

MNZ060>063-068>070-240500-
   Twin Cities Metro

CITY           SKY/WX    TMP DP  RH WIND       PRES   REMARKS
TWIN CITIES    CLOUDY    47  29  49 NW20G29   29.85F
ST PAUL        CLOUDY    47  28  47 NW22G33   29.85S
CRYSTAL        CLOUDY    46  26  45 NW20G28   29.85S
BLAINE         CLOUDY    46  28  49 NW13      29.85S
LAKEVILLE      CLOUDY    45  28  53 NW20G28   29.84S
EDEN PRAIRIE   CLOUDY    46  29  51 NW24G36   29.84S
SOUTH ST PAUL  CLOUDY    48  27  45 N20       29.83S
LAKE ELMO      CLOUDY    46  32  57 NW9       29.84S
$$
MNZ001>005-007-008-013>017-022>024-027-028-240500-
   Northwest Minnesota

CITY           SKY/WX    TMP DP  RH WIND       PRES   REMARKS
BEMIDJI        CLOUDY    39  30  70 N13G22    30.00S
HALLOCK        CLEAR     37  30  75 N17       30.15S
ROSEAU         CLOUDY    43  32  65 N15G26    30.08S
WARROAD        CLOUDY    39  30  70 N21G30    30.07R
CROOKSTON      PTCLDY    37  28  70 N18       30.14R
FOSSTON        CLOUDY    37  27  65 NW22      30.07R
DETROIT LAKES  CLOUDY    37  30  75 NW18G25   30.05S
MOORHEAD       CLOUDY    37  28  70 N18       30.12R
PARK RAPIDS    CLOUDY    40  28  62 N18G33    29.98S
MAHNOMEN       CLOUDY    38  28  65 N21G28    30.06R
$$
MNZ006-009>011-018-025>026-240500-
   North Central Minnesota

CITY           SKY/WX    TMP DP  RH WIND       PRES   REMARKS
BAUDETTE       CLOUDY    41  31  67 N20G35    30.01S
FLAG ISLAND    CLOUDY    43  30  61 N24G31    30.05R
INTL FALLS     LGT RAIN  41  33  73 N15G23    29.95R
WASKISH        CLOUDY    39  34  81 NW16      30.00S
BIG FORK       CLOUDY    41  34  75 NW9       29.94R
LONGVILLE      CLOUDY    41  30  65 NW8G22    29.94S
GRAND RAPIDS   CLOUDY    41  33  73 N24G33    29.92S
CRANE LAKE     RAIN      37  37 100 N12G18    29.91S
ORR            CLOUDY    39  32  75 NW12G17   29.88S
COOK           CLOUDY    41  34  75 NW8G21    29.89S
WALKER         CLOUDY    39  29  67 NW16G22   29.97F
$$
MNZ012-019>021-037-240500-
   Northeast Minnesota

CITY           SKY/WX    TMP DP  RH WIND       PRES   REMARKS
DULUTH         CLOUDY    42  35  76 NW17G32   29.77F
ELY            DRIZZLE   37  36  93 NW10G21   29.83S
HIBBING        LGT RAIN  40  31  70 N23G33    29.86S
EVELETH        CLOUDY    42  37  79 NW10G20   29.86S
DULUTH HARBOR  CLOUDY    46  37  71 NW10G17   29.82R
TWO HARBORS    CLEAR     45  36  70 NW10G25   29.74R
GRAND MARAIS     N/A     48  40  73 NW18G40   29.67S
G MARAIS ARPRT CLOUDY    39  36  87 NW12G21   29.71S
$$
MNZ029>031-032-039>041-046>048-054>057-064-240500-
   West Central Minnesota

CITY           SKY/WX    TMP DP  RH WIND       PRES   REMARKS
FERGUS FALLS   CLEAR     36  28  75 N14G22    30.08R
WHEATON        CLEAR     39  28  65 NW20G26   30.10S
MORRIS         CLEAR     39  28  65 N22G31    30.03R
ALEXANDRIA     PTCLDY    39  28  64 N23G40    30.00R
ELBOW LAKE     FAIR      38  30  73 NW17G28   30.04S
WADENA         MOCLDY    37  27  65 NW12      29.99S
GLENWOOD       CLEAR     39  28  65 NW21G31   29.98S
APPLETON       CLEAR     43  28  56 N23G36    30.03R
BENSON         CLEAR     43  30  61 N16G25    30.02R
ORTONVILLE     CLEAR     41  30  65 N21       30.06R
MADISON        CLEAR     46  32  57 N24G31    30.04R
WILLMAR        FAIR      45  34  65 N23G36    29.98S
$$
MNZ033>034-036-042>043-049>051-058-059-240500-
   Central Minnesota

CITY           SKY/WX    TMP DP  RH WIND       PRES   REMARKS
ST CLOUD       CLEAR     41  30  65 NW13G23   29.91S
SAUK CENTRE    FAIR      39  28  63 NW20G25   29.96S
PAYNESVILLE    CLEAR     41  30  64 NW12G22   29.95F
AITKIN         CLOUDY    39  30  70 NW12G18   29.89S
PINE RIVER     CLOUDY    39  28  65 N13G24    29.97F
BRAINERD       CLOUDY    42  28  57 NW14      29.93S
STAPLES        PTCLDY    37  27  65 NW12G17   29.97S
LONG PRAIRIE   MOCLDY    37  27  65 NW20G25   29.96S
LITTLE FALLS   CLEAR     39  21  48 NW8G20    29.93F
LITCHFIELD     CLEAR     45  30  57 NW16G30   29.93S
BUFFALO        CLEAR     43  29  57 NW15G26   29.91S
MAPLE LAKE     CLEAR     43  32  64 NW14G21   29.91S
HUTCHINSON     CLEAR     45  31  59 NW13G21   29.93S
$$
MNZ037-044-045-052-053-240500-
   East Central Minnesota

CITY           SKY/WX    TMP DP  RH WIND       PRES   REMARKS
PRINCETON      MOCLDY    43  28  56 NW12      29.88F
MORA           CLOUDY    43  30  61 N21G30    29.87S
CAMBRIDGE      CLOUDY    46  32  57 NW15G21   29.86S
RUSH CITY      CLOUDY    45  32  61 NW12G22   29.85S
MOOSE LAKE     PTCLDY    43  32  65 NW13G24   29.82F
HINCKLEY       MOCLDY    45  32  61 NW9G21    29.84F
CLOQUET        CLEAR     43  30  61 NW16G30   29.80F
MCGREGOR       CLOUDY    43  32  65 NW15G30   29.88F
$$
MNZ071>073-080-081-089-090-097-098-240500-
   Southwest Minnesota

CITY           SKY/WX    TMP DP  RH WIND       PRES   REMARKS
MONTEVIDEO     CLEAR     45  30  57 N22G30    30.01R
GRANITE FALLS  CLEAR     48  34  57 NW24G30   30.01R
CANBY          CLEAR     47  30  50 NW28G37   30.04R
MARSHALL       CLOUDY    48  34  58 N28G33    29.98S
REDWOOD FALLS  MOCLDY    46  32  58 N16G24    29.95F
OLIVIA         PTCLDY    41  32  70 NW10      29.96R
PIPESTONE      CLOUDY    46  34  61 N25G37    30.01S
WORTHINGTON    PTCLDY    45  35  68 NW18G26   29.98S
JACKSON        MOCLDY    46  34  61 NW20G32   29.95S
TRACY          CLOUDY    48  38  68 NW17G23   29.98S
SLAYTON        PTCLDY    45  35  68 NW20      29.99S
$$
MNZ065>067-074>077-082>085-091>093-240500-
   South Central Minnesota

CITY           SKY/WX    TMP DP  RH WIND       PRES   REMARKS
NEW ULM          N/A     45  30  57 N10       29.93S
ST JAMES       MOCLDY    43  34  70 NW12      29.93F
FAIRMONT       PTCLDY    45  33  63 NW17G25   29.92S
GLENCOE        CLEAR     46  29  52 NW17G28   29.90S
FARIBAULT      CLOUDY    46  30  53 NW13G23   29.85F
OWATONNA       CLOUDY    46  28  49 NW24G36   29.85R
WASECA         CLOUDY    45  28  53 NW17G28   29.87F
$$
MNZ078>079-086>088-094>096-240500-
   Southeast Minnesota

CITY           SKY/WX    TMP DP  RH WIND       PRES   REMARKS
ROCHESTER      CLOUDY    45  30  55 NW18G26   29.80S
RED WING       CLOUDY    48  30  49 NW9G18    29.80S
STANTON        CLOUDY    48  30  49 NW13G29   29.83S
DODGE CENTER   CLOUDY    45  28  53 NW17G24   29.81F
WINONA         CLOUDY    48  37  66 NW20G26   29.76S
AUSTIN         CLOUDY    46  28  49 NW16G25   29.81F
PRESTON        CLOUDY    45  31  56 N18G28    29.78R
$$
ABBREVIATIONS USED IN REMARKS
   TC - TEMPERATURES IN CELSIUS
  WCI - WIND CHILL INDEX
   HX - HEAT INDEX
  VSB - VISIBILITY
$$




USA.gov is the U.S. government's official web portal to all federal, state and local government web resources and services.